{"data":{"norad_id":48863,"epoch":"2026-05-25T02:12:33.187392Z","epoch_age_seconds":70246,"freshness":"FRESH","line1":"1 48863U 21055D   26145.09205078  .00002360  00000+0  17607-3 0  9995","line2":"2 48863  34.9960 292.2816 0003886 313.5989  46.4396 15.02555066269414","mean_motion":15.02555066,"eccentricity":0.0003886,"inclination_deg":34.996,"raan_deg":292.2816,"arg_perigee_deg":313.5989,"mean_anomaly_deg":46.4396,"bstar":0.00017607,"rev_number":26941,"period_min":95.836753845799,"perigee_km":556.32506925532,"apogee_km":561.7166283354,"semimajor_km":6937.1578487954,"source":"CELESTRAK","updated_at":"2026-05-25T13:37:56.974078Z"}}